Temp
24 27 27 29 28 28 27 27 27 28 28 26 26 26 24 24 24 24 23 22 23 23 23 22 22 22 22 22 22 22 21 21 21 20 20 20 20 20 20 20 20 20 20 20
27 27 28 27 27 27 27 27 29 27 27 27 25 26 25 24 24 24 23 23 23 23 23 22 23 22 23 23 22 22 22 22 21 20 20 20 20 20 20 20 20 20 20 20
27 28 26 27 29 29 29 29 29 28 26 26 26 26 25 25 24 24 24 24 24 24 24 23 23 23 24 23 24 23 23 22 22 21 21 20 20 20 20 20 20 20 21 21
27 27 28 29 29 29 30 28 28 27 27 28 26 29 25 25 25 25 24 24 24 24 24 24 23 24 24 24 24 24 23 23 22 22 21 20 20 21 21 20 21 21 21 21
28 27 28 28 29 28 30 28 27 27 28 27 27 28 28 24 24 25 25 25 24 24 24 24 23 25 25 25 25 25 24 23 23 22 22 21 21 21 21 21 21 21 21 21
27 25 27 29 29 28 28 28 27 26 28 29 26 28 31 26 27 26 25 25 25 24 24 24 25 25 25 25 25 25 25 24 23 22 22 21 21 21 21 21 21 21 21 21
27 28 27 27 29 27 28 31 30 29 29 30 25 27 30 30 28 29 26 25 25 24 24 24 24 25 25 25 26 25 25 24 23 23 22 22 21 21 21 21 21 21 21 21
27 28 28 27 29 30 29 31 30 28 29 30 25 29 32 30 29 27 27 26 25 25 24 25 25 26 26 26 26 26 26 25 24 24 23 23 22 22 22 21 21 21 21 21
27 28 28 27 28 28 27 29 28 28 24 28 28 30 30 30 29 27 27 26 25 25 25 24 26 26 26 26 26 26 26 26 25 25 24 23 23 22 22 22 22 21 21 21
27 28 27 28 27 26 28 26 30 28 28 28 29 28 31 31 29 28 28 27 26 25 25 25 25 26 27 27 27 27 26 26 26 25 25 24 24 23 23 22 22 22 22 21
26 27 29 28 27 27 29 29 25 27 26 29 29 31 27 26 26 26 28 27 27 26 25 25 25 26 27 27 27 27 26 26 26 26 25 25 24 24 24 23 23 22 22 22
26 28 28 27 26 25 26 27 28 30 27 24 27 30 25 24 25 24 25 26 25 25 25 25 24 26 26 27 27 27 27 27 27 26 26 25 25 24 24 24 23 23 23 22
26 26 27 27 28 27 27 25 24 26 26 26 28 31 25 22 23 22 23 25 25 26 25 24 24 27 27 27 27 27 27 27 27 26 26 26 25 25 25 24 24 24 24 23
23 25 27 29 28 27 26 25 24 27 29 27 28 28 28 23 21 22 22 24 25 27 26 25 24 27 28 28 28 27 27 27 27 27 26 26 26 26 26 25 25 24 24 24
25 26 24 24 25 26 26 26 25 26 24 27 25 25 25 22 20 19 20 23 24 24 24 24 25 26 26 26 27 27 27 27 27 27 27 27 27 26 25 25 25 25 25 24
24 25 24 25 25 24 25 24 24 24 23 23 23 25 22 20 20 19 19 20 20 20 21 21 23 25 26 26 26 27 27 27 26 27 27 27 27 27 26 26 26 25 25 25
24 25 25 25 23 25 25 26 24 22 22 23 26 23 21 21 18 17 16 17 17 18 19 20 20 20 23 25 26 27 27 26 26 26 27 27 27 27 27 26 26 26 26 25
23 23 23 24 23 23 24 22 23 23 22 22 22 21 21 19 18 16 15 16 16 18 17 19 20 21 23 24 25 26 27 27 26 26 26 26 26 26 26 26 26 26 25 24
20 22 22 24 24 23 23 22 22 23 24 22 22 21 20 19 19 17 15 15 17 18 19 18 18 22 23 24 24 25 25 26 26 26 26 26 26 26 26 26 25 24 23 22
20 20 23 21 23 23 22 20 20 21 24 21 20 20 20 19 20 19 16 16 18 18 19 20 19 20 23 24 25 25 25 25 25 25 25 25 25 25 25 24 23 22 21 21
21 21 22 22 23 23 21 20 19 22 22 20 19 19 19 19 18 17 17 18 17 19 19 20 18 18 21 23 24 26 25 25 25 24 24 24 24 24 24 23 23 23 22 20
20 21 22 20 22 22 19 20 22 20 19 18 18 18 17 17 16 18 18 18 18 17 19 20 18 18 23 21 23 24 25 25 25 24 24 24 24 24 23 22 22 22 22 20
20 20 21 21 22 19 18 19 18 18 18 18 18 17 18 18 18 17 18 18 17 17 18 18 19 23 23 20 21 23 24 25 25 25 25 23 23 23 22 21 21 20 20 20
17 15 19 19 19 19 18 18 18 18 17 17 17 18 19 20 18 18 18 19 20 19 19 20 20 20 20 21 21 21 23 23 24 23 23 23 22 21 20 19 19 19 18 18
18 16 18 19 20 19 18 17 18 19 18 18 18 19 20 19 19 20 20 21 21 21 20 20 21 21 21 21 21 21 22 23 23 22 21 20 20 19 19 18 17 17 17 16
17 19 20 21 18 18 18 19 18 18 18 19 19 19 19 20 20 21 22 22 22 22 23 23 22 22 22 21 20 19 20 21 21 20 20 20 19 19 19 19 18 18 17 16
Height
1514 1514 1515 1510 1510 1509 1513 1513 1513 1504 1498 1503 1505 1508 1512 1515 1519 1521 1526 1529 1532 1536 1539 1544 1547 1550 1554 1558 1560 1563 1565 1568 1570 1572 1574 1576 1578 1580 1582 1582 1583 1583 1583 1583
1514 1514 1510 1509 1509 1511 1510 1509 1503 1503 1500 1505 1508 1508 1508 1511 1512 1514 1519 1525 1528 1532 1537 1539 1543 1547 1550 1553 1557 1560 1563 1566 1569 1570 1573 1575 1578 1579 1580 1581 1581 1581 1581 1580
1512 1509 1509 1510 1506 1507 1505 1504 1502 1505 1507 1507 1507 1508 1506 1508 1512 1516 1519 1521 1525 1528 1531 1535 1539 1543 1547 1550 1552 1555 1560 1563 1567 1569 1571 1574 1575 1576 1577 1578 1579 1579 1579 1578
1508 1507 1507 1508 1507 1504 1505 1500 1500 1504 1504 1513 1507 1510 1507 1504 1507 1510 1514 1517 1520 1523 1527 1532 1535 1539 1542 1545 1549 1552 1556 1561 1565 1568 1570 1571 1573 1573 1575 1577 1578 1578 1578 1578
1509 1507 1508 1508 1503 1502 1502 1499 1501 1503 1505 1509 1509 1511 1498 1503 1504 1502 1504 1509 1513 1518 1522 1526 1530 1534 1538 1543 1546 1549 1552 1558 1562 1565 1567 1569 1570 1573 1574 1575 1576 1576 1576 1578
1505 1506 1505 1500 1499 1499 1499 1500 1503 1505 1504 1514 1515 1509 1491 1498 1490 1491 1498 1501 1506 1511 1518 1523 1526 1530 1535 1539 1543 1546 1549 1554 1559 1562 1564 1566 1568 1571 1572 1573 1574 1576 1577 1578
1504 1500 1498 1498 1499 1499 1500 1498 1515 1520 1518 1516 1513 1512 1490 1482 1481 1482 1487 1492 1499 1506 1512 1516 1521 1526 1530 1535 1539 1542 1546 1550 1555 1558 1561 1564 1566 1568 1570 1571 1574 1575 1577 1577
1513 1510 1497 1495 1494 1495 1499 1495 1511 1534 1525 1514 1514 1508 1485 1478 1478 1480 1483 1487 1497 1503 1507 1512 1516 1521 1526 1531 1535 1539 1542 1546 1550 1554 1557 1560 1562 1565 1567 1569 1572 1573 1575 1575
1512 1507 1494 1495 1494 1495 1502 1503 1502 1513 1528 1519 1508 1492 1481 1478 1477 1478 1481 1486 1490 1495 1501 1506 1511 1517 1521 1526 1530 1535 1539 1542 1545 1549 1553 1556 1559 1561 1563 1566 1568 1570 1572 1573
1501 1509 1496 1494 1495 1496 1494 1501 1505 1508 1527 1529 1510 1508 1495 1483 1483 1482 1482 1484 1488 1492 1498 1504 1507 1512 1517 1521 1525 1530 1533 1537 1541 1545 1549 1552 1555 1558 1560 1563 1564 1567 1569 1571
1500 1501 1498 1494 1501 1503 1498 1498 1509 1508 1517 1519 1524 1504 1498 1496 1492 1490 1486 1487 1487 1488 1491 1497 1501 1507 1512 1517 1520 1524 1528 1532 1535 1540 1544 1548 1551 1554 1556 1559 1561 1563 1565 1567
1498 1496 1506 1507 1503 1503 1501 1503 1500 1503 1520 1526 1521 1505 1499 1498 1494 1492 1488 1487 1487 1490 1492 1494 1497 1502 1506 1511 1515 1519 1523 1527 1531 1535 1539 1543 1547 1550 1551 1555 1558 1560 1562 1563
1498 1503 1512 1510 1503 1501 1502 1507 1510 1506 1510 1521 1516 1500 1495 1498 1494 1492 1489 1486 1485 1485 1488 1492 1495 1497 1502 1507 1511 1515 1518 1522 1526 1530 1533 1537 1541 1544 1546 1549 1553 1555 1557 1558
1500 1504 1502 1505 1503 1501 1507 1508 1510 1504 1506 1515 1510 1499 1490 1497 1497 1493 1492 1487 1483 1483 1485 1489 1493 1495 1499 1503 1507 1511 1514 1518 1521 1524 1527 1530 1534 1537 1540 1543 1545 1548 1550 1552
1500 1505 1507 1506 1504 1503 1504 1505 1507 1506 1511 1511 1512 1508 1499 1505 1505 1502 1498 1493 1486 1485 1486 1489 1491 1493 1497 1501 1504 1508 1512 1515 1517 1519 1522 1524 1527 1530 1533 1536 1538 1540 1542 1544
1502 1507 1507 1509 1506 1508 1507 1508 1508 1507 1510 1511 1509 1505 1508 1510 1507 1506 1502 1498 1493 1490 1490 1490 1492 1495 1496 1499 1501 1504 1507 1511 1514 1516 1517 1520 1522 1524 1526 1528 1531 1533 1534 1536
1507 1505 1508 1514 1513 1510 1516 1506 1509 1510 1509 1506 1505 1505 1511 1512 1512 1510 1507 1503 1500 1497 1495 1492 1493 1495 1494 1497 1499 1500 1502 1506 1508 1510 1513 1514 1516 1518 1519 1521 1523 1524 1525 1528
1508 1509 1511 1514 1515 1532 1509 1508 1507 1507 1507 1508 1509 1510 1514 1517 1517 1516 1514 1510 1509 1502 1506 1496 1496 1500 1498 1496 1496 1495 1497 1500 1502 1504 1506 1508 1509 1510 1512 1513 1514 1516 1519 1521
1510 1508 1515 1516 1516 1515 1510 1509 1509 1507 1505 1508 1511 1513 1515 1516 1516 1517 1520 1514 1511 1511 1505 1503 1506 1508 1507 1500 1499 1498 1495 1496 1498 1499 1500 1502 1502 1503 1503 1505 1507 1510 1512 1514
1511 1511 1508 1519 1517 1520 1510 1510 1511 1510 1508 1511 1513 1514 1516 1516 1515 1519 1518 1517 1515 1510 1506 1491 1513 1513 1514 1504 1503 1503 1499 1497 1498 1498 1497 1498 1498 1498 1498 1499 1501 1503 1505 1507
1511 1512 1511 1514 1512 1510 1510 1511 1512 1516 1517 1513 1514 1515 1516 1515 1516 1515 1515 1515 1513 1509 1510 1517 1522 1518 1511 1511 1505 1505 1504 1501 1499 1498 1498 1497 1496 1496 1496 1497 1497 1497 1500 1502
1513 1512 1511 1516 1515 1518 1511 1511 1512 1513 1512 1514 1515 1516 1516 1515 1514 1512 1512 1512 1509 1509 1502 1511 1518 1510 1499 1510 1513 1508 1502 1502 1500 1498 1496 1497 1496 1494 1495 1495 1495 1494 1494 1497
1515 1513 1511 1512 1509 1510 1511 1511 1511 1511 1512 1512 1514 1514 1514 1513 1512 1511 1510 1508 1506 1504 1503 1502 1504 1507 1508 1509 1518 1508 1502 1501 1498 1498 1495 1493 1494 1493 1494 1495 1494 1495 1495 1494
1513 1515 1511 1512 1510 1509 1509 1509 1508 1508 1508 1509 1510 1510 1510 1509 1507 1507 1505 1504 1504 1504 1504 1506 1504 1507 1509 1507 1502 1500 1498 1498 1496 1495 1494 1492 1492 1492 1494 1495 1495 1495 1495 1496
1511 1514 1511 1509 1506 1506 1508 1507 1506 1505 1505 1506 1506 1507 1507 1506 1504 1501 1501 1500 1499 1500 1501 1503 1504 1503 1499 1498 1497 1499 1498 1497 1494 1493 1495 1494 1492 1493 1493 1495 1496 1497 1497 1497
1507 1505 1506 1504 1506 1506 1507 1506 1505 1504 1505 1504 1504 1505 1505 1504 1502 1500 1498 1496 1496 1495 1494 1494 1493 1492 1493 1496 1500 1499 1497 1494 1494 1497 1495 1494 1494 1494 1493 1496 1496 1497 1497 1497
Wind_Speed
3 3 3 6 4 9 8 10 9 8 5 9 14 10 12 19 18 20 23 25 25 24 24 23 25 25 24 24 23 22 20 17 19 19 18 17 15 13 10 8 8 7 8 6
3 5 4 4 7 6 6 6 3 1 1 10 5 14 12 20 24 28 27 25 27 26 22 22 25 25 25 24 24 24 23 20 19 19 18 16 14 13 14 12 10 8 9 8
4 0 0 3 6 5 1 5 5 2 6 3 2 5 13 14 17 23 23 25 25 28 26 22 24 25 25 25 25 26 24 22 19 17 17 18 15 13 14 12 10 9 7 4
4 0 6 6 5 2 4 3 3 6 5 3 3 2 4 12 18 20 26 27 27 28 27 25 24 26 27 26 24 25 25 24 21 18 17 18 15 14 12 12 11 11 9 5
3 2 3 3 4 4 3 6 5 3 2 2 2 4 3 6 14 19 28 31 31 29 29 29 27 31 29 26 22 21 25 24 23 20 18 17 17 15 16 14 12 10 7 4
7 1 4 3 3 5 1 1 4 3 2 3 2 3 2 5 8 16 24 31 32 35 31 30 31 29 30 26 25 23 23 25 25 22 19 19 17 18 18 16 11 5 4 4
3 6 3 4 5 3 2 2 3 1 2 2 1 3 6 5 9 9 23 32 33 32 33 34 32 32 31 30 25 26 25 27 25 24 22 20 19 19 20 18 14 10 7 5
2 3 4 5 4 1 3 3 3 2 2 2 2 3 1 3 7 11 16 26 27 30 33 33 36 36 34 31 28 28 26 26 26 25 23 20 20 21 21 20 17 12 9 7
3 2 2 2 1 2 4 4 3 4 1 3 3 3 4 0 5 5 9 18 26 30 32 34 38 37 34 32 31 28 28 27 26 25 24 22 21 22 22 20 19 16 14 12
3 3 0 1 3 8 2 6 2 1 0 1 1 3 3 9 10 6 5 15 20 24 27 28 34 36 34 32 28 28 30 28 25 26 25 23 21 21 22 22 22 20 18 17
5 3 1 1 6 2 2 2 5 3 2 1 2 3 8 6 8 12 8 7 14 22 25 28 31 36 35 31 30 26 30 31 29 27 26 25 23 21 22 23 22 21 21 20
3 1 2 4 2 2 2 3 1 2 2 2 2 3 7 10 6 13 11 7 6 13 18 22 25 29 33 33 31 26 24 30 28 26 27 26 25 23 24 25 23 23 23 22
3 1 5 4 3 2 2 3 3 4 1 2 3 3 3 17 14 14 10 8 5 8 13 15 20 26 29 29 28 26 25 24 25 28 28 27 29 28 27 26 26 25 25 25
1 2 3 5 2 3 3 1 2 1 2 4 5 11 12 18 16 18 16 9 4 6 12 17 18 24 27 26 24 23 23 23 24 25 27 29 29 32 30 29 28 27 26 27
2 2 1 2 2 2 2 3 4 1 2 4 4 7 11 13 13 16 15 13 10 8 0 10 16 17 21 25 25 24 23 21 20 21 23 24 23 27 31 34 33 32 30 29
4 1 0 3 3 3 1 1 2 2 3 5 5 7 6 9 11 16 20 18 20 21 18 12 3 8 10 13 16 22 24 25 24 23 23 22 23 24 25 29 31 34 35 34
4 3 3 4 1 1 5 4 2 2 3 2 2 2 7 10 16 17 17 20 22 23 21 22 18 13 3 7 11 16 18 19 21 22 22 23 24 25 25 26 28 30 31 34
3 3 0 1 4 7 3 1 2 3 3 4 4 3 5 9 10 12 16 19 21 30 28 28 24 20 17 12 6 5 10 15 18 20 20 21 22 23 25 27 28 29 29 30
5 3 2 4 8 2 3 2 2 2 0 4 2 2 2 5 9 11 10 18 23 25 30 30 26 23 18 18 15 11 8 4 4 10 15 17 18 20 21 23 23 23 24 25
4 2 4 3 5 7 3 3 2 2 4 3 1 2 5 1 1 3 7 10 10 22 17 25 29 26 19 21 17 13 13 11 8 5 4 8 11 13 14 14 15 15 18 20
1 2 5 4 4 0 1 1 2 4 3 5 5 3 1 2 1 6 4 7 6 3 13 18 18 28 21 20 15 15 11 8 8 6 5 4 4 5 6 7 9 11 12 14
1 1 2 2 2 4 2 3 3 3 1 4 6 5 3 1 4 6 12 12 17 16 7 20 23 34 16 15 18 8 9 9 7 3 2 3 5 5 7 8 9 11 11 12
3 2 1 3 2 1 2 5 4 5 5 5 1 1 4 4 2 4 5 7 15 15 17 23 24 18 16 23 16 11 8 6 5 5 6 5 6 5 3 3 2 2 3 1
2 3 2 2 2 4 4 7 6 9 10 7 5 4 2 9 9 8 7 7 8 12 23 32 33 34 26 12 11 9 6 0 2 4 3 4 4 4 2 1 3 3 2 0
0 5 2 3 6 5 7 7 4 3 2 2 2 3 2 7 9 11 9 6 5 4 11 17 18 13 7 5 5 3 2 6 7 6 2 1 3 4 4 4 5 2 1 2
9 6 5 3 1 1 1 7 4 1 1 2 2 2 3 8 11 13 14 14 13 7 6 5 6 6 9 8 3 6 5 4 3 2 1 3 6 8 9 7 6 5 4 1
Wind_Direction
143 208 246 308 285 285 288 287 305 280 229 185 211 214 189 189 191 185 190 193 199 206 211 218 224 220 221 222 217 211 211 207 204 207 210 212 210 211 219 235 257 282 279 298
166 244 243 290 274 270 277 288 20 139 271 209 221 227 209 190 201 194 191 198 202 210 212 217 223 222 225 225 225 222 218 217 215 218 221 225 221 227 231 240 264 282 293 271
234 46 191 271 284 310 260 345 5 33 134 225 211 237 201 208 207 206 207 205 205 209 213 217 220 222 225 229 232 231 224 219 218 223 224 226 228 229 219 233 252 270 306 286
275 138 231 236 281 264 307 309 329 134 142 327 251 312 197 203 209 209 205 205 209 209 217 221 221 223 225 231 235 236 230 223 218 220 225 224 224 219 220 235 253 268 273 291
221 218 199 263 258 201 311 25 18 102 112 288 170 260 122 182 212 214 209 208 208 210 214 219 221 233 234 235 236 240 236 223 220 221 223 224 223 220 232 237 254 265 239 247
259 274 256 240 249 230 67 140 59 74 12 254 37 293 242 197 212 216 212 213 209 211 212 217 221 226 231 235 237 237 235 229 221 221 225 226 227 223 230 233 243 230 233 239
281 241 249 211 262 129 178 228 321 240 235 311 50 262 280 259 239 222 203 211 209 210 212 217 220 224 230 232 233 235 236 232 223 223 226 230 230 230 230 231 235 257 273 276
303 203 205 157 242 333 181 269 241 283 203 335 155 255 54 252 292 259 221 213 205 210 212 214 219 223 228 231 233 238 237 236 230 228 228 231 233 233 231 228 234 251 250 250
221 233 284 216 239 318 135 186 49 115 96 262 349 283 274 144 23 72 177 195 198 204 211 215 218 222 225 228 230 231 234 238 234 232 232 232 232 234 234 230 231 238 239 244
199 251 33 78 124 62 268 128 162 90 314 331 31 291 325 25 24 24 166 193 201 207 210 212 219 220 224 228 231 229 231 235 238 233 233 234 233 235 236 234 233 237 239 244
184 242 150 206 19 353 151 133 67 109 349 345 332 311 8 356 19 357 347 235 211 204 205 209 218 222 225 226 229 234 229 232 238 238 236 236 236 235 238 238 235 236 241 244
186 241 66 100 73 47 32 51 356 354 122 63 335 274 40 31 17 7 4 359 235 228 223 208 212 220 223 223 228 226 226 233 237 244 239 238 241 242 243 242 240 241 243 247
154 224 131 167 195 153 54 47 78 92 95 178 261 289 50 18 5 0 349 338 314 245 232 219 208 220 225 223 225 226 228 233 239 243 245 240 239 242 246 248 246 246 248 251
122 104 274 209 105 104 159 144 128 300 288 147 247 295 330 359 348 343 350 340 320 238 224 221 220 222 226 227 227 229 231 234 241 246 248 246 244 241 244 248 252 252 254 255
26 78 1 69 82 150 140 150 157 149 84 273 15 289 332 349 345 344 353 15 58 50 152 218 220 223 228 231 236 237 238 233 235 238 245 248 252 251 247 248 252 255 256 258
3 75 15 136 63 48 210 157 123 121 154 253 284 289 356 5 37 29 31 39 51 56 55 47 288 231 231 234 236 242 250 251 249 249 248 249 252 254 254 254 255 256 258 259
311 185 168 199 38 354 250 220 216 142 219 278 296 348 5 47 32 17 7 36 39 39 43 56 51 52 122 244 246 248 251 252 251 255 258 257 261 263 262 261 259 258 260 261
244 178 163 127 151 219 60 70 253 254 209 203 282 319 86 54 59 40 34 43 43 51 36 49 48 43 56 69 91 164 227 238 241 247 255 260 263 263 264 264 264 265 265 265
220 192 150 207 211 331 194 200 258 292 237 198 297 354 89 123 94 50 55 52 58 54 54 47 34 38 43 58 57 67 88 104 235 245 248 253 259 257 257 261 267 273 273 271
103 78 231 161 236 243 68 135 312 271 255 101 292 309 42 145 252 89 45 91 63 53 54 49 354 2 18 43 43 47 61 65 60 41 305 273 261 256 258 260 261 266 266 267
104 96 209 187 235 116 85 249 169 229 48 3 357 343 350 85 67 186 179 102 96 98 55 33 354 323 339 2 27 27 38 48 55 47 31 17 360 331 296 279 263 259 264 261
304 235 171 159 220 227 125 147 257 46 61 18 48 65 76 290 262 234 228 246 258 243 189 247 287 260 328 333 336 1 26 22 16 354 337 316 310 306 300 285 291 284 268 262
234 289 345 253 34 119 220 266 275 291 271 286 177 343 349 336 271 256 246 249 242 246 221 207 236 232 275 277 285 285 330 360 10 341 321 296 296 302 305 314 334 51 73 30
192 180 247 270 145 246 302 292 272 279 274 266 269 304 335 320 313 299 259 248 229 223 221 228 245 266 272 273 289 258 264 202 22 323 283 254 273 265 236 102 77 71 61 203
42 165 198 259 281 307 73 33 6 346 298 240 240 162 323 331 341 355 356 352 319 289 223 219 226 242 238 293 263 267 46 43 22 3 321 221 130 131 93 82 105 112 185 215
205 206 212 256 165 243 270 356 348 208 209 310 188 303 351 352 353 355 358 359 356 336 310 276 277 272 237 218 199 359 327 28 33 323 359 97 109 101 91 85 85 78 57 34